FW5819 Weather Reports


Display with metric or nautical units.
time (UTC)temp
F
wind
direction
speed
MPH
gust
MPH
rain 1hr
in
rain 24hr
in
rain mn
in
humidity
%
barometer
mb
20260502201535 45 305 5.0 13.0 0.00 0.21 0.15 66 1017.0
20260502200054 46 345 5.0 11.0 0.00 0.21 0.15 67 1017.2
20260502194534 45 25 4.0 10.0 0.00 0.21 0.15 64 1017.2
20260502193039 45 296 4.0 10.0 0.00 0.21 0.15 67 1017.4
20260502191532 46 27 6.0 12.0 0.00 0.21 0.15 62 1017.5
20260502190037 46 338 4.0 10.0 0.00 0.21 0.15 65 1017.6
20260502184535 46 294 2.0 8.0 0.00 0.23 0.15 64 1017.7
20260502183044 45 297 2.0 7.0 0.00 0.23 0.15 63 1017.8
20260502181534 45 16 3.0 8.0 0.00 0.23 0.15 64 1017.8
20260502163036 44 349 1.0 6.0 0.00 0.31 0.15 72 1018.2
20260502161537 44 17 2.0 6.0 0.00 0.31 0.15 75 1018.3
20260502151537 42 267 2.0 6.0 0.00 0.38 0.15 80 1018.1
20260502123036 36 337 0.0 2.0 0.02 0.45 0.14 92 1017.6
20260502121535 36 71 1.0 6.0 0.02 0.45 0.14 92 1017.5
20260502114538 36 41 1.0 5.0 0.03 0.47 0.13 92 1017.2
20260502113049 36 9 1.0 3.0 0.04 0.46 0.12 92 1017.1
20260502111537 36 31 1.0 3.0 0.07 0.46 0.12 92 1017.0
20260502110035 36 0 0.0 9.0 0.07 0.45 0.11 92 1016.8
20260502104535 35 67 1.0 6.0 0.07 0.49 0.10 92 1016.7
20260502103057 35 65 1.0 6.0 0.05 0.47 0.08 92 1016.5
20260502101548 36 346 3.0 10.0 0.02 0.44 0.05 92 1016.2
20260502071536 37 136 0.0 1.0 0.00 0.47 0.03 92 1015.7
20260502070035 38 0 0.0 1.0 0.00 0.47 0.03 92 1015.8
20260502064537 38 0 0.0 1.0 0.00 0.47 0.03 92 1015.9
20260502063044 38 0 0.0 2.0 0.00 0.47 0.03 91 1015.8
20260502061536 38 0 0.0 4.0 0.00 0.47 0.03 91 1015.9
20260502060034 38 84 0.0 2.0 0.00 0.47 0.03 91 1016.2
20260502054550 39 158 0.0 6.0 0.01 0.47 0.03 91 1016.4
20260502053037 39 95 1.0 4.0 0.03 0.47 0.03 91 1016.3
20260502051535 39 132 0.0 2.0 0.03 0.47 0.03 91 1016.4
20260502050035 39 0 0.0 1.0 0.03 0.47 0.03 91 1016.6
20260502044536 39 0 0.0 1.0 0.02 0.46 0.02 91 1016.6
20260502043032 39 0 0.0 1.0 0.00 0.44 0.00 91 1016.6
20260502041534 39 0 0.0 2.0 0.00 0.44 0.00 91 1016.4
20260502040034 40 0 0.0 3.0 0.00 0.44 0.00 90 1016.5
20260502034536 40 0 0.0 1.0 0.00 0.44 0.44 90 1016.3
20260502033041 39 0 0.0 0.0 0.01 0.44 0.44 90 1016.4
20260502031539 39 0 0.0 1.0 0.01 0.44 0.44 90 1016.4
20260502030044 39 0 0.0 0.0 0.05 0.44 0.44 89 1016.3
20260502024537 39 0 0.0 0.0 0.06 0.44 0.44 89 1016.3
20260502023036 40 0 0.0 1.0 0.05 0.43 0.43 88 1016.3
20260502021535 40 26 1.0 6.0 0.05 0.43 0.43 88 1016.3
20260502020034 42 50 4.0 12.0 0.01 0.39 0.39 87 1016.2
20260502014534 42 0 0.0 0.0 0.00 0.38 0.38 87 1015.9
20260502013035 42 0 0.0 0.0 0.00 0.38 0.38 86 1015.8
20260502011536 42 0 0.0 0.0 0.00 0.38 0.38 85 1015.7
20260502010040 42 0 0.0 0.0 0.00 0.38 0.38 84 1015.5
20260502004532 42 0 0.0 0.0 0.00 0.38 0.38 83 1015.6
20260502003035 43 0 0.0 0.0 0.00 0.38 0.38 82 1015.4
20260502001536 43 0 0.0 0.0 0.00 0.38 0.38 81 1015.2
20260502000035 44 0 0.0 1.0 0.00 0.38 0.38 80 1015.1
20260501234537 45 278 0.0 3.0 0.00 0.38 0.38 79 1015.1
20260501233049 45 315 0.0 0.0 0.00 0.38 0.38 78 1014.9
20260501231535 45 0 0.0 4.0 0.00 0.38 0.38 78 1014.9
20260501230035 46 290 0.0 3.0 0.00 0.38 0.38 75 1015.0
20260501224536 47 331 0.0 2.0 0.00 0.38 0.38 79 1014.9
20260501223040 45 260 0.0 1.0 0.00 0.38 0.38 80 1015.0
20260501221538 45 0 0.0 3.0 0.00 0.38 0.38 80 1014.9
20260501220032 45 45 1.0 4.0 0.00 0.38 0.38 80 1015.0
20260501214536 45 319 1.0 4.0 0.00 0.38 0.38 80 1014.7
20260501213039 44 11 2.0 4.0 0.00 0.38 0.38 81 1014.6
20260501211549 45 30 2.0 6.0 0.00 0.38 0.38 81 1014.6
20260501210039 45 155 1.0 4.0 0.00 0.38 0.38 81 1014.3
20260501204532 46 139 1.0 5.0 0.00 0.38 0.38 81 1014.2
20260501203036 46 86 1.0 4.0 0.00 0.38 0.38 85 1014.0